Regional Weather Roundup
Issued by NWS Upton, NY

Current Version | Previous Version | Graphics & Text | Print | Product List | Glossary Off
Versions: 1 2 3 4 5 6 7 8 9 10 11 12 13 14 15 16 17 18 19 20 21 22 23 24 25 26 27 28 29 30 31 32 33 34 35 36 37 38 39 40 41 42 43 44 45 46 47 48 49 50

000
ASUS41 KOKX 022305
RWROKX

REGIONAL WEATHER ROUNDUP
NATIONAL WEATHER SERVICE NEW YORK NY
700 PM EDT TUE SEP 02 2014

NOTE: "FAIR" INDICATES FEW OR NO CLOUDS BELOW 12,000 FEET WITH NO
SIGNIFICANT WEATHER AND/OR OBSTRUCTIONS TO VISIBILITY.

NYZ071-072-176-178-NJZ106-104-030000-
NEW YORK CITY METRO AREA


CITY           SKY/WX    TMP DP  RH WIND       PRES   REMARKS
CENTRAL PARK   CLEAR     89  64  43 SW10G18   29.83S HX  90
LAGUARDIA APRT PTCLDY    90  65  43 SW12      29.79S HX  92
KENNEDY INTL   PTCLDY    82  73  74 S13       29.82S
NEWARK/LIBERTY PTCLDY    90  65  43 SW15G22   29.79F HX  92
BRNX BOT. GARD   N/A     90  64  43 SW6       29.80F HX  91
TETERBORO      CLEAR     90  64  42 SW8       29.78S HX  91
$$

NYZ177-179-078>081-030000-
LONG ISLAND NEW YORK

CITY           SKY/WX    TMP DP  RH WIND       PRES   REMARKS
FARMINGDALE    CLEAR     81  72  74 SW12G21   29.82S
ISLIP          MOCLDY    82  71  69 SW14      29.80F
SHIRLEY        CLEAR     80  72  76 S13G20    29.83S
WESTHAMPTON    CLEAR     80  71  74 SW10      29.84F
MONTAUK POINT    N/A     77  72  84 S8        29.83F
$$

NYZ052-065-067-030000-
HUDSON VALLEY

CITY           SKY/WX    TMP DP  RH WIND       PRES   REMARKS
WHITE PLAINS   CLEAR     85  66  53 W3        29.81S
NEWBURGH       CLEAR     86  70  58 W14       29.80F HX  90
MONTGOMERY     CLEAR     85  68  56 SW10      29.78S
POUGHKEEPSIE   CLEAR     87  68  52 S6        29.76S HX  90
ALBANY         PTCLDY    82  71  69 S3        29.73F
$$

NJZ001-105-106-008-010-013-015-019>022-104-030000-
NEW JERSEY

CITY           SKY/WX    TMP DP  RH WIND       PRES   REMARKS
NEWARK/LIBERTY PTCLDY    90  65  43 SW15G22   29.79F HX  92
TETERBORO      CLEAR     90  64  42 SW8       29.78S HX  91
CALDWELL       CLEAR     87  65  47 SW5       29.80F
MORRISTOWN     PTCLDY    88  66  48 W9        29.81S HX  90
SOMERVILLE     CLEAR     86  67  52 CALM      29.80S
LINDEN         FAIR      94  67  40 W7        29.82F HX  97
SUSSEX         CLEAR     85  68  56 W3        29.81S
ANDOVER          N/A     83  68  60 SW6       29.83S
TRENTON        CLEAR     86  68  54 SW7       29.83S
MILLVILLE      CLEAR     84  71  65 CALM      29.86S
ATLANTIC CITY  CLEAR     85  71  63 S8        29.86S HX  90
WRIGHTSTOWN    CLEAR     84  72  67 SW9       29.82S HX  90
TOMS RIVER     CLEAR     86  72  62 SW5       29.85S HX  92
BELMAR         CLEAR     86  70  58 SW8       29.84S HX  90
$$

PAZ047>061-062-071-030000-
EASTERN PENNSYLVANIA

CITY           SKY/WX    TMP DP  RH WIND       PRES   REMARKS
PHILADELPHIA   MOCLDY    89  70  53 SW14      29.84F HX  94
ALLENTOWN      PTCLDY    87  67  51 SW12      29.83S HX  90
SCRANTON       MOCLDY    84  65  52 S5        29.82S
$$

CTZ002-004>006-009-010-012-RIZ004-006-007-MAZ004-011-015-030000-
SOUTHERN NEW ENGLAND
 IN CT

CITY           SKY/WX    TMP DP  RH WIND       PRES   REMARKS
BRADLEY INTL   PTCLDY    86  71  60 S10       29.76F HX  91
HARTFORD       CLEAR     84  72  67 S9        29.76F
DANBURY        CLEAR     83  70  64 S6        29.81F
WTRBRY/OXFORD  PTCLDY   N/A N/A N/A S6        29.84F
BRIDGEPORT     CLEAR     84  73  69 S15       29.79F HX  90
MERIDEN        CLEAR     84  72  67 S9        29.79F
NEW HAVEN      CLEAR     84  73  69 S8        29.79F HX  90
CHESTER        FAIR      81  73  78 S7        29.83S
GROTON         CLEAR     74  72  93 SW5       29.81F
WILLIMANTIC    CLEAR     83  72  69 S8        29.80F

 IN RI

CITY           SKY/WX    TMP DP  RH WIND       PRES   REMARKS
PROVIDENCE     MOCLDY    82  69  64 S10       29.81F
BLOCK ISLAND   CLEAR     75  70  83 SW15      29.84F
WESTERLY       CLEAR     78  71  79 S7        29.82F

 IN MA

CITY           SKY/WX    TMP DP  RH WIND       PRES   REMARKS
BOSTON         LGT RAIN  78  70  76 SE7       29.79F
WORCESTER      PTCLDY    77  71  82 S3        29.84F
WESTFIELD      CLEAR     83  72  69 S5        29.76F
PROVINCETOWN   MOCLDY    75  70  83 SW12G18   29.83S
NANTUCKET      FOG       70  70 100 S3        29.86S VSB 1/2
$$

ANZ330-335-338-340-345-350-353-355-030000-
COASTAL MARINE OBSERVATIONS


STATION/POSITION TIME  SKY/WX   TEMP    WIND        PRES    VSBY  WAVE
                                AIR SEA DIR/SP/G                  HT/PER
                 (UTC)          (F)     (DEG/KT/KT) (MB)    (MI)  (FT/S)
NY HARB ENTRANCE NOT AVBL
4S FIRE IS       NOT AVBL
23SW MTP         2300                                 N/A           3/ 6
HUDSON CANYON    2300            78 76  220/ 12/ 14 1011.4          3/ 5
EXECUTION ROCKS  2300            83 76  210/  8/ 12   N/A
WESTERN LI SOUND 2300            84     190/ 10/ 12   N/A           1
CENTRAL LI SOUND 2200            80 76  200/ 12/ 14   N/A           1/ 2
EASTERN LI SOUND 2200            76 71  170/  6/ 10   N/A
ROBBINS REEF     2300            89     240/ 19/ 23   N/A
$$


>>>>>>>>>>>>>>>>>>>>>>>>>>>> KEY <<<<<<<<<<<<<<<<<<<<<<<<<<<
>                                                          <
>     SKY/WX - SKY CONDITION/PRESENT WEATHER               <
>     TMP    - TEMPERATURE IN FAHRENHEIT                   <
>     DP     - DEWPOINT IN FAHRENHEIT                      <
>     RH     - RELATIVE HUMIDITY IN PERCENT                <
>     WIND   - DIRECTION AND SPEED IN MPH                  <
>     PRES   - MEAN SEA LEVEL PRESSURE IN INCHES OF HG     <
>     WCI    - WIND CHILL INDEX                            <
>     VSB    - VISIBILITY IN MILES                         <
>     HX     - HEAT INDEX                                  <
>     TC     - TEMPERATURE IN CELSIUS                      <
>     VRB    - VARIABLE WIND DIRECTION                     <
>                                                          <
>>>>>>>>>>>>>>>>>>>>>>>>>>>> KEY <<<<<<<<<<<<<<<<<<<<<<<<<<<





USA.gov is the U.S. government's official web portal to all federal, state and local government web resources and services.